DW8482 Tortoreto Alto IT current weather conditions

sailwx.info

Wind from 331 at 3 knots gusting 9

Air temperature 17.2° C
Dewpoint 11.7° C

Last reported at 2017-May-26 18:05 UTC.
Time now 2017-May-26 19:01 UTC

Location: N 42°48' E 013°54'.
View on Google Maps.

See reports from other nearby stations

  
Tides and Currents Weather Stations Pressure Air Temp Water Temp Dewpoint Dewpoint Depression Visibility Wind Speed Wind Dir Waves Ship Positions
date/time (UTC)wind fromknots sea level pressurealtimeterstation pressurevisibilityair tempwater tempwave heightnotes
2017-May-26 18:05 331 3 gusting 9 17.2
2017-May-26 18:00 065 2 gusting 7 17.2
2017-May-26 17:55 047 2 gusting 8 17.8
2017-May-26 17:50 348 1 gusting 8 17.8
2017-May-26 17:45 030 2 gusting 8 17.8
2017-May-26 17:40 029 3 gusting 10 17.8
2017-May-26 17:35 028 2 gusting 10 18.3
2017-May-26 17:30 031 2 gusting 9 18.3
2017-May-26 17:25 005 2 gusting 9 18.3
2017-May-26 17:20 005 3 gusting 10 18.3
2017-May-26 17:15 18.3
2017-May-26 17:10 038 2 gusting 9 18.3
2017-May-26 17:05 017 1 gusting 8 18.3
2017-May-26 17:00 010 2 gusting 13 18.9
2017-May-26 16:55 005 2 gusting 13 18.9
2017-May-26 16:45 010 3 gusting 9 18.9
2017-May-26 16:40 042 3 gusting 9 18.9
2017-May-26 16:30 044 3 gusting 9 18.9
2017-May-26 16:25 019 4 gusting 9 18.9
2017-May-26 16:20 048 3 gusting 9 19.4
2017-May-26 16:15 026 3 gusting 12 19.4
2017-May-26 16:10 039 3 gusting 12 19.4
2017-May-26 16:05 053 4 gusting 10 19.4
2017-May-26 16:00 034 4 gusting 10 19.4
2017-May-26 15:55 350 4 gusting 10 19.4
2017-May-26 15:50 344 4 gusting 11 19.4
2017-May-26 15:45 355 4 gusting 11 19.4
2017-May-26 15:40 048 4 gusting 9 19.4
2017-May-26 15:35 110 4 gusting 11 19.4
2017-May-26 15:30 337 4 gusting 11 19.4
2017-May-26 15:25 084 4 gusting 11 19.4
2017-May-26 15:20 078 4 gusting 10 19.4
2017-May-26 15:15 018 3 gusting 10 20.0
2017-May-26 15:10 051 3 gusting 10 20.0
2017-May-26 15:05 053 5 gusting 13 19.4
2017-May-26 15:00 029 5 gusting 13 19.4
2017-May-26 14:55 009 5 gusting 13 19.4
2017-May-26 14:50 013 5 gusting 13 19.4
2017-May-26 14:45 035 4 gusting 10 20.0
2017-May-26 14:40 20.0
2017-May-26 14:35 355 3 gusting 12 20.0
2017-May-26 14:30 023 4 gusting 12 20.0
2017-May-26 14:25 355 4 gusting 11 20.0
2017-May-26 14:20 066 5 gusting 13 19.4
2017-May-26 14:15 049 5 gusting 14 20.0
2017-May-26 14:10 355 5 gusting 14 20.0
2017-May-26 14:05 022 4 gusting 13 20.0
2017-May-26 14:00 336 4 gusting 13 20.0
2017-May-26 13:55 027 5 gusting 14 20.0
2017-May-26 13:50 346 5 gusting 14 20.0
2017-May-26 13:45 030 4 gusting 11 20.0
2017-May-26 13:40 024 4 gusting 11 20.0
2017-May-26 13:35 053 5 gusting 13 20.0
2017-May-26 13:30 062 6 gusting 14 20.0
2017-May-26 13:25 046 5 gusting 14 20.0
2017-May-26 13:20 315 5 gusting 13 20.0
2017-May-26 13:15 042 5 gusting 13 20.0
2017-May-26 13:10 023 5 gusting 13 20.0
2017-May-26 13:05 056 5 gusting 13 20.0
2017-May-26 13:00 355 4 gusting 12 20.0
2017-May-26 12:55 016 4 gusting 12 20.0
2017-May-26 12:50 042 4 gusting 13 20.0
2017-May-26 12:45 348 5 gusting 13 20.0
2017-May-26 12:40 046 5 gusting 13 20.0
2017-May-26 12:35 026 5 gusting 13 20.0
2017-May-26 12:30 20.6
2017-May-26 12:25 341 4 gusting 11 20.6
2017-May-26 12:20 005 6 gusting 13 20.0
2017-May-26 12:15 018 6 gusting 13 20.0
2017-May-26 12:10 325 6 gusting 13 20.0
2017-May-26 12:05 005 5 gusting 13 20.6
2017-May-26 12:00 049 4 gusting 13 21.1
2017-May-26 11:55 053 4 gusting 13 20.6
2017-May-26 11:50 032 4 gusting 11 20.6
2017-May-26 11:45 086 4 gusting 10 20.6
2017-May-26 11:40 071 4 gusting 10 20.6
2017-May-26 11:35 065 3 gusting 10 21.1
2017-May-26 11:30 348 3 gusting 9 21.1
2017-May-26 11:25 065 4 gusting 9 20.6
2017-May-26 11:20 065 3 gusting 9 21.1
2017-May-26 11:15 024 3 gusting 9 21.1
2017-May-26 11:10 331 3 gusting 10 21.1
2017-May-26 11:05 055 3 gusting 10 21.1
2017-May-26 11:00 355 5 gusting 9 20.6
2017-May-26 10:55 327 5 gusting 9 20.6
2017-May-26 10:50 350 3 gusting 8 20.6
2017-May-26 10:45 029 3 gusting 9 20.6
2017-May-26 10:40 036 3 gusting 9 21.1
2017-May-26 10:35 025 4 gusting 9 20.6
2017-May-26 10:30 322 4 gusting 9 20.6
2017-May-26 10:26 005 2 gusting 7 21.7
2017-May-26 10:20 047 4 gusting 12 21.1
2017-May-26 10:15 246 6 gusting 12 20.6
2017-May-26 10:10 202 4 gusting 11 20.6
2017-May-26 10:05 217 2 gusting 11 20.6
2017-May-26 10:00 049 1 gusting 8 21.1
2017-May-26 09:55 103 1 gusting 8 20.6
2017-May-26 09:50 341 1 gusting 6 20.6
2017-May-26 09:45 103 1 gusting 6 20.0
2017-May-26 09:40 121 1 gusting 4 20.6
2017-May-26 09:36 105 1 gusting 14 20.6
2017-May-26 09:30 074 2 gusting 14 20.6
2017-May-26 09:25 089 2 gusting 6 20.6
2017-May-26 09:20 323 1 gusting 6 21.1
2017-May-26 09:15 019 1 gusting 6 20.6
2017-May-26 09:10 090 2 gusting 7 20.6
2017-May-26 09:05 005 2 gusting 7 20.6
2017-May-26 09:00 012 1 gusting 6 20.6
2017-May-26 08:55 100 1 gusting 6 20.0
2017-May-26 08:50 138 2 gusting 7 19.4
2017-May-26 08:40 248 4 gusting 9 19.4
2017-May-26 08:30 226 4 gusting 10 19.4
2017-May-26 08:20 202 1 gusting 5 20.0
2017-May-26 08:15 082 1 gusting 6 20.0
2017-May-26 08:05 224 6 gusting 13 19.4
2017-May-26 08:00 284 6 gusting 13 18.9
2017-May-26 07:55 211 5 gusting 13 18.9
2017-May-26 07:45 251 3 gusting 9 18.9
2017-May-26 07:40 248 1 gusting 8 19.4
2017-May-26 07:30 179 1 gusting 8 19.4
2017-May-26 07:25 215 2 gusting 8 18.9
2017-May-26 07:20 186 3 gusting 9 18.3
2017-May-26 07:15 350 5 gusting 12 18.3
2017-May-26 07:05 237 5 gusting 10 17.8
2017-May-26 07:00 252 6 gusting 10 17.8
2017-May-26 06:55 219 6 gusting 10 17.8
2017-May-26 06:50 234 6 gusting 12 17.2
2017-May-26 06:45 218 6 gusting 12 17.2
2017-May-26 06:40 246 6 gusting 12 17.2
2017-May-26 06:35 259 6 gusting 12 17.2
2017-May-26 06:30 255 6 gusting 11 17.2
2017-May-26 06:25 229 6 gusting 11 16.7
2017-May-26 06:20 232 6 gusting 11 16.7
2017-May-26 06:15 230 6 gusting 10 16.7
2017-May-26 06:10 254 6 gusting 12 16.7
2017-May-26 06:05 251 6 gusting 12 16.7
2017-May-26 06:00 231 6 gusting 10 16.1
2017-May-26 05:55 250 6 gusting 11 16.1
2017-May-26 05:50 242 6 gusting 11 16.1
2017-May-26 05:45 218 5 gusting 10 16.1
2017-May-26 05:40 281 4 gusting 10 16.1
2017-May-26 05:35 244 4 gusting 9 15.6
2017-May-26 05:30 228 4 gusting 9 15.6
2017-May-26 05:25 268 4 gusting 9 15.6
2017-May-26 05:20 229 5 gusting 8 15.6
2017-May-26 05:15 275 5 gusting 9 15.6
2017-May-26 05:10 256 3 gusting 9 15.0
2017-May-26 05:05 251 3 gusting 8 15.0
2017-May-26 05:00 268 4 gusting 6 15.0
2017-May-26 04:55 246 3 gusting 6 15.0
2017-May-26 04:50 207 3 gusting 6 14.4
2017-May-26 04:45 231 4 gusting 6 14.4
2017-May-26 04:40 249 3 gusting 6 14.4
2017-May-26 04:30 229 3 gusting 6 14.4
2017-May-26 04:25 234 3 gusting 6 13.9
2017-May-26 04:20 255 2 gusting 6 13.9
2017-May-26 04:15 239 1 gusting 5 13.9
2017-May-26 04:10 229 1 gusting 4 13.9
2017-May-26 04:05 211 1 gusting 4 13.9
2017-May-26 04:00 232 2 gusting 6 13.9
2017-May-26 03:55 232 2 gusting 6 13.9
2017-May-26 03:50 246 2 gusting 6 13.9
2017-May-26 03:45 239 2 gusting 6 13.9
2017-May-26 03:40 250 3 gusting 5 13.9
2017-May-26 03:34 232 3 gusting 6 13.9
2017-May-26 03:29 254 2 gusting 6 13.9
2017-May-26 03:24 247 2 gusting 6 13.9
2017-May-26 03:19 222 2 gusting 6 13.9
2017-May-26 03:15 253 3 gusting 8 13.9
2017-May-26 03:10 225 3 gusting 8 13.9
2017-May-26 03:04 266 2 gusting 6 13.3
2017-May-26 02:59 235 1 gusting 4 13.9
2017-May-26 02:55 221 2 gusting 6 13.9
2017-May-26 02:50 257 3 gusting 7 13.9
2017-May-26 02:45 250 3 gusting 7 13.9
2017-May-26 02:40 227 3 gusting 7 13.3
2017-May-26 02:35 242 2 gusting 7 13.3
2017-May-26 02:29 250 1 gusting 4 13.3
2017-May-26 02:24 233 2 gusting 6 13.9
2017-May-26 02:20 233 3 gusting 7 13.9
2017-May-26 02:14 204 5 gusting 9 14.4
2017-May-26 02:09 237 4 gusting 9 13.9
2017-May-26 02:04 250 3 gusting 6 13.9
2017-May-26 01:59 250 2 gusting 6 13.3
2017-May-26 01:54 223 2 gusting 4 13.3
2017-May-26 01:49 221 1 gusting 4 13.3
2017-May-26 01:44 217 1 gusting 4 13.3
2017-May-26 01:39 202 1 gusting 5 13.3
2017-May-26 01:34 205 1 gusting 5 13.3
2017-May-26 01:29 215 1 gusting 3 13.9
2017-May-26 01:24 209 1 gusting 3 13.9
2017-May-26 01:20 197 1 gusting 4 13.9
2017-May-26 01:14 248 0 gusting 4 13.9
2017-May-26 01:10 252 1 gusting 3 14.4
2017-May-26 01:05 255 1 gusting 3 14.4
2017-May-26 01:00 249 1 gusting 4 14.4
2017-May-26 00:54 238 2 gusting 8 15.0
2017-May-26 00:49 257 2 gusting 8 14.4
2017-May-26 00:44 236 1 gusting 4 14.4
2017-May-26 00:39 184 0 gusting 3 14.4
2017-May-26 00:35 184 1 gusting 5 14.4
2017-May-26 00:29 258 2 gusting 5 14.4
2017-May-26 00:24 233 2 gusting 6 14.4
2017-May-26 00:19 224 1 gusting 6 14.4
2017-May-26 00:14 264 1 gusting 5 14.4
2017-May-26 00:09 261 2 gusting 6 14.4
2017-May-26 00:04 239 2 gusting 6 13.9
2017-May-25 23:59 244 2 gusting 6 13.9
2017-May-25 23:55 250 3 gusting 6 14.4
2017-May-25 23:49 239 3 gusting 6 14.4
2017-May-25 23:44 246 3 gusting 7 14.4
2017-May-25 23:39 240 3 gusting 7 15.0
2017-May-25 23:34 257 3 gusting 7 14.4
2017-May-25 23:29 255 2 gusting 4 14.4
2017-May-25 23:24 254 1 gusting 4 14.4
2017-May-25 23:19 254 1 gusting 3 14.4
2017-May-25 23:14 254 1 gusting 3 14.4
2017-May-25 23:09 254 1 gusting 3 14.4
2017-May-25 23:04 254 1 gusting 2 14.4
2017-May-25 22:59 254 1 gusting 3 14.4
2017-May-25 22:54 254 2 gusting 5 14.4
2017-May-25 22:49 263 2 gusting 5 14.4
2017-May-25 22:44 266 1 gusting 3 14.4
2017-May-25 22:39 267 1 gusting 2 14.4
2017-May-25 22:34 267 1 gusting 3 15.0
2017-May-25 22:29 268 1 gusting 5 15.0
2017-May-25 22:24 268 2 gusting 5 15.0
2017-May-25 22:19 259 1 gusting 3 14.4
2017-May-25 22:14 258 1 gusting 3 14.4
2017-May-25 22:09 258 1 gusting 4 14.4
2017-May-25 22:04 258 2 gusting 4 13.9
2017-May-25 21:59 246 2 gusting 3 13.9
2017-May-25 21:54 247 2 gusting 3 13.9
2017-May-25 21:49 252 2 gusting 6 14.4
2017-May-25 21:44 253 2 gusting 6 14.4
2017-May-25 21:39 240 2 gusting 6 14.4
2017-May-25 21:34 242 2 gusting 4 14.4
2017-May-25 21:29 281 1 gusting 3 15.0
2017-May-25 21:24 281 1 gusting 3 15.6
2017-May-25 21:19 281 1 gusting 3 16.1
2017-May-25 21:14 281 1 gusting 3 16.1
2017-May-25 21:09 281 2 gusting 4 16.7
2017-May-25 21:04 281 3 gusting 5 16.7
2017-May-25 20:59 281 2 gusting 5 16.7
2017-May-25 20:54 279 2 gusting 5 16.7
2017-May-25 20:49 284 3 gusting 5 16.7
2017-May-25 20:45 298 3 gusting 4 16.1
2017-May-25 20:36 336 2 gusting 3 15.6
2017-May-25 20:31 337 2 gusting 3 15.6
2017-May-25 20:26 337 2 gusting 3 15.6
2017-May-25 20:21 337 2 gusting 3 15.6
2017-May-25 20:16 337 2 gusting 2 15.6
2017-May-25 20:11 337 2 gusting 2 16.1
2017-May-25 20:07 337 2 gusting 2 16.1
2017-May-25 20:01 337 1 gusting 2 16.7
2017-May-25 19:56 337 0 gusting 2 16.7
2017-May-25 19:51 337 1 gusting 4 16.7
2017-May-25 19:46 338 1 gusting 4 16.7
2017-May-25 19:41 339 0 gusting 4 16.7
2017-May-25 19:35 342 17.2
2017-May-25 19:30 342 1 gusting 3 17.2
2017-May-25 19:25 342 2 gusting 3 17.2
2017-May-25 19:19 342 2 gusting 3 16.7
2017-May-25 19:14 342 1 gusting 3 16.7
2017-May-25 19:09 342 1 gusting 3 16.7
2017-May-25 19:04 005 0 gusting 3 16.7
2017-May-25 18:59 017 1 gusting 3 16.7
2017-May-25 18:54 018 1 gusting 3 16.1
2017-May-25 18:49 018 0 gusting 3 16.1
2017-May-25 18:44 018 0 gusting 3 16.1
2017-May-25 18:39 018 1 gusting 3 16.1
2017-May-25 18:34 015 0 gusting 3 16.1
2017-May-25 18:29 016 16.1
2017-May-25 18:24 016 16.1
2017-May-25 18:19 016 0 gusting 3 16.7
2017-May-25 18:14 017 0 gusting 3 16.7
2017-May-25 18:09 022 0 gusting 2 16.7
2017-May-25 18:04 023 1 gusting 5 16.7
2017-May-25 17:59 021 2 gusting 5 16.7
2017-May-25 17:54 350 3 gusting 5 16.7
2017-May-25 17:49 16.7
2017-May-25 17:44 346 3 gusting 6 17.2
2017-May-25 17:39 005 2 gusting 6 17.2
2017-May-25 17:34 018 1 gusting 6 17.2
2017-May-25 17:29 035 1 gusting 6 17.2
2017-May-25 17:24 034 1 gusting 8 17.8
2017-May-25 17:19 068 1 gusting 8 17.8
2017-May-25 17:14 029 1 gusting 6 17.8
2017-May-25 17:09 043 1 gusting 6 17.8
2017-May-25 17:04 058 1 gusting 6 17.8
2017-May-25 16:59 011 2 gusting 6 17.8
2017-May-25 16:54 086 1 gusting 6 17.8
2017-May-25 16:49 355 1 gusting 4 17.8
2017-May-25 16:44 038 1 gusting 6 17.8
2017-May-25 16:39 072 2 gusting 7 18.3
2017-May-25 16:34 005 2 gusting 7 18.3
2017-May-25 16:29 020 2 gusting 6 18.3
2017-May-25 16:24 053 1 gusting 6 18.3
2017-May-25 16:19 015 1 gusting 7 18.3
2017-May-25 16:14 005 1 gusting 7 18.3
2017-May-25 16:09 050 1 gusting 5 18.3
2017-May-25 16:04 069 1 gusting 6 18.3
2017-May-25 15:59 027 1 gusting 6 18.3
2017-May-25 15:54 306 1 gusting 5 18.3
2017-May-25 15:49 058 1 gusting 6 18.3
2017-May-25 15:44 073 1 gusting 6 18.3
2017-May-25 15:39 075 2 gusting 6 18.3
2017-May-25 15:34 076 2 gusting 7 18.9
2017-May-25 15:29 076 1 gusting 7 18.9
2017-May-25 15:24 015 1 gusting 6 18.9
2017-May-25 15:19 031 1 gusting 6 18.9
2017-May-25 15:14 084 1 gusting 6 19.4
2017-May-25 15:09 009 2 gusting 9 18.9
2017-May-25 15:04 351 1 gusting 9 19.4
2017-May-25 14:59 028 1 gusting 6 19.4
2017-May-25 14:54 070 2 gusting 7 18.9
2017-May-25 14:49 024 2 gusting 7 18.9
2017-May-25 14:44 035 1 gusting 5 19.4
2017-May-25 14:39 027 1 gusting 8 19.4
2017-May-25 14:34 055 2 gusting 8 18.9
2017-May-25 14:29 070 2 gusting 6 19.4
2017-May-25 14:24 053 2 gusting 6 19.4
2017-May-25 14:19 082 1 gusting 6 19.4
2017-May-25 14:14 028 1 gusting 5 19.4
2017-May-25 14:09 035 1 gusting 6 19.4
2017-May-25 14:04 020 1 gusting 6 19.4
2017-May-25 13:59 080 1 gusting 5 18.9
2017-May-25 13:54 049 1 gusting 5 18.9
2017-May-25 13:49 080 2 gusting 6 18.9
2017-May-25 13:44 078 2 gusting 6 18.9
2017-May-25 13:39 044 2 gusting 4 18.9
2017-May-25 13:34 073 1 gusting 7 18.9
2017-May-25 13:29 076 1 gusting 7 18.9
2017-May-25 13:24 065 1 gusting 6 18.9
2017-May-25 13:19 087 2 gusting 6 18.9
2017-May-25 13:14 078 1 gusting 6 18.9
2017-May-25 13:09 067 1 gusting 6 18.9
2017-May-25 13:04 080 1 gusting 6 18.9
2017-May-25 12:59 086 2 gusting 6 19.4
2017-May-25 12:54 029 2 gusting 6 18.9
2017-May-25 12:49 057 2 gusting 6 18.9
2017-May-25 12:44 022 2 gusting 7 18.9
2017-May-25 12:39 065 2 gusting 7 18.9
2017-May-25 12:34 094 1 gusting 7 18.9
2017-May-25 12:29 080 1 gusting 6 19.4
2017-May-25 12:23 066 2 gusting 8 19.4
2017-May-25 12:19 069 2 gusting 8 19.4
2017-May-25 12:14 048 2 gusting 6 18.9
2017-May-25 12:09 032 2 gusting 7 19.4
2017-May-25 12:04 079 2 gusting 7 19.4
2017-May-25 11:58 092 2 gusting 6 19.4
2017-May-25 11:54 019 1 gusting 6 19.4
2017-May-25 11:49 021 2 gusting 7 19.4
2017-May-25 11:44 072 3 gusting 7 19.4
2017-May-25 11:39 087 2 gusting 6 18.9
2017-May-25 11:34 015 2 gusting 6 18.9
2017-May-25 11:29 015 2 gusting 6 18.9
2017-May-25 11:23 18.9
2017-May-25 11:18 057 2 gusting 6 18.3
2017-May-25 11:13 073 2 gusting 6 18.3
2017-May-25 11:08 030 2 gusting 6 18.3
2017-May-25 11:04 067 2 gusting 6 18.9
2017-May-25 10:58 041 2 gusting 7 18.3
2017-May-25 10:53 031 2 gusting 7 18.3
2017-May-25 10:49 077 3 gusting 7 18.3
2017-May-25 10:43 074 3 gusting 6 18.3
2017-May-25 10:38 038 3 gusting 8 18.3
2017-May-25 10:34 058 3 gusting 8 18.3
2017-May-25 10:29 079 3 gusting 9 18.3
2017-May-25 10:23 049 3 gusting 9 18.3
2017-May-25 10:18 090 3 gusting 9 18.3
2017-May-25 10:14 069 3 gusting 7 18.3
2017-May-25 10:08 029 2 gusting 6 17.8
2017-May-25 10:04 047 2 gusting 8 18.3
2017-May-25 09:58 051 3 gusting 8 17.8
2017-May-25 09:53 072 2 gusting 8 17.8
2017-May-25 09:48 042 3 gusting 7 17.8
2017-May-25 09:43 042 3 gusting 8 17.8
2017-May-25 09:38 355 2 gusting 8 18.3
2017-May-25 09:33 012 3 gusting 8 18.3
2017-May-25 09:28 075 2 gusting 7 18.3
2017-May-25 09:23 038 2 gusting 7 18.3
2017-May-25 09:18 060 3 gusting 9 18.3
2017-May-25 09:13 032 2 gusting 9 18.3
2017-May-25 09:09 059 2 gusting 7 18.3
2017-May-25 09:03 071 1 gusting 6 17.8
2017-May-25 08:58 062 1 gusting 6 17.8
2017-May-25 08:54 032 1 gusting 6 17.8
2017-May-25 08:48 039 1 gusting 6 17.8
2017-May-25 08:43 073 1 gusting 6 17.8
2017-May-25 08:39 022 2 gusting 6 17.2
2017-May-25 08:33 017 2 gusting 6 17.2
2017-May-25 08:29 015 2 gusting 6 17.8
2017-May-25 08:23 005 1 gusting 6 18.3
2017-May-25 08:18 030 1 gusting 6 17.8
2017-May-25 08:13 027 1 gusting 6 17.8
2017-May-25 08:08 067 1 gusting 6 17.2
2017-May-25 08:03 057 0 gusting 3 17.2
2017-May-25 07:58 063 16.7
2017-May-25 07:53 063 0 gusting 2 16.7
2017-May-25 07:48 063 0 gusting 2 16.7
2017-May-25 07:43 063 0 gusting 2 16.1
2017-May-25 07:38 063 0 gusting 2 16.1
2017-May-25 07:33 063 0 gusting 2 16.1
2017-May-25 07:28 063 0 gusting 2 16.1
2017-May-25 07:23 062 0 gusting 3 16.1
2017-May-25 07:18 080 0 gusting 4 16.1
2017-May-25 07:13 057 0 gusting 5 16.1
2017-May-25 07:08 063 0 gusting 5 16.1
2017-May-25 07:03 113 0 gusting 2 16.1
2017-May-25 06:58 118 0 gusting 3 16.1
2017-May-25 06:53 118 0 gusting 3 16.1
2017-May-25 06:48 146 0 gusting 2 16.1
2017-May-25 06:43 146 0 gusting 3 16.7
2017-May-25 06:38 146 0 gusting 3 16.1
2017-May-25 06:33 187 16.1
2017-May-25 06:28 187 0 gusting 3 15.6
2017-May-25 06:23 187 1 gusting 3 15.0
2017-May-25 06:18 189 0 gusting 3 15.0
2017-May-25 06:13 189 0 gusting 2 15.0
2017-May-25 06:08 188 0 gusting 3 15.0
2017-May-25 06:03 188 0 gusting 3 15.0
2017-May-25 05:58 188 1 gusting 3 15.0
2017-May-25 05:53 187 1 gusting 4 15.0
2017-May-25 05:48 184 2 gusting 6 15.0
2017-May-25 05:43 216 3 gusting 6 15.0
2017-May-25 05:38 217 3 gusting 8 15.0
2017-May-25 05:33 207 2 gusting 8 15.0
2017-May-25 05:28 138 2 gusting 7 15.0
2017-May-25 05:23 121 1 gusting 7 15.0
2017-May-25 05:18 147 2 gusting 6 15.0
2017-May-25 05:14 161 2 gusting 5 15.0
2017-May-25 05:08 157 2 gusting 4 15.0
2017-May-25 05:03 134 1 gusting 4 14.4
2017-May-25 04:58 159 0 gusting 4 15.0
2017-May-25 04:53 103 0 gusting 3 15.0
2017-May-25 04:48 090 0 gusting 3 15.0
2017-May-25 04:43 090 0 gusting 3 15.0
2017-May-25 04:38 123 0 gusting 3 15.0
2017-May-25 04:33 194 1 gusting 4 15.0
2017-May-25 04:28 218 1 gusting 4 15.0
2017-May-25 04:23 204 1 gusting 5 15.0
2017-May-25 04:18 187 0 gusting 5 15.0
2017-May-25 04:13 234 15.0
2017-May-25 04:08 234 0 gusting 5 15.0
2017-May-25 04:03 234 2 gusting 6 15.0
2017-May-25 03:58 019 4 gusting 10 15.0
2017-May-25 03:53 162 3 gusting 10 15.0
2017-May-25 03:48 167 3 gusting 7 15.0
2017-May-25 03:43 123 2 gusting 6 15.0
2017-May-25 03:38 132 1 gusting 3 15.6
2017-May-25 03:33 084 0 gusting 4 15.6
2017-May-25 03:28 078 1 gusting 6 15.6
2017-May-25 03:23 078 1 gusting 6 15.6
2017-May-25 03:18 082 2 gusting 6 15.6
2017-May-25 03:13 074 3 gusting 9 15.6
2017-May-25 03:08 090 3 gusting 9 15.6
2017-May-25 03:03 086 2 gusting 9 15.6
2017-May-25 02:58 044 2 gusting 8 15.6
2017-May-25 02:53 055 2 gusting 8 15.6
2017-May-25 02:48 080 2 gusting 8 15.6
2017-May-25 02:43 069 2 gusting 12 15.6
2017-May-25 02:38 074 4 gusting 12 15.6
2017-May-25 02:33 023 4 gusting 10 15.6
2017-May-25 02:28 054 4 gusting 12 15.6
2017-May-25 02:23 063 5 gusting 13 15.6
2017-May-25 02:18 030 6 gusting 13 16.1
2017-May-25 02:13 067 7 gusting 17 15.6
2017-May-25 02:08 061 7 gusting 17 16.1
2017-May-25 02:03 051 7 gusting 19 16.1
2017-May-25 01:58 037 8 gusting 19 15.6
2017-May-25 01:53 048 9 gusting 19 15.6
2017-May-25 01:48 050 9 gusting 20 15.6
2017-May-25 01:43 022 9 gusting 20 15.6
2017-May-25 01:38 046 9 gusting 25 16.1
2017-May-25 01:33 042 7 gusting 25 16.7
2017-May-25 01:28 029 5 gusting 17 17.8
2017-May-25 01:23 086 4 gusting 14 17.8
2017-May-25 01:18 055 3 gusting 14 17.8
2017-May-25 01:13 355 2 gusting 7 18.3
2017-May-25 01:08 355 3 gusting 5 18.3
2017-May-25 01:03 344 3 gusting 5 18.9
2017-May-25 00:58 344 1 gusting 4 19.4
2017-May-25 00:53 092 19.4
2017-May-25 00:48 165 19.4
2017-May-25 00:43 165 19.4
2017-May-25 00:38 165 19.4
2017-May-25 00:33 165 19.4
2017-May-25 00:28 165 0 gusting 3 20.0
2017-May-25 00:23 165 0 gusting 3 20.0
2017-May-25 00:18 165 0 gusting 3 19.4
2017-May-25 00:13 165 19.4
2017-May-25 00:08 165 0 gusting 1 19.4
2017-May-25 00:03 165 0 gusting 3 19.4
2017-May-24 23:58 165 1 gusting 3 20.0
2017-May-24 23:53 161 0 gusting 3 20.0
2017-May-24 23:48 157 0 gusting 4 20.0
2017-May-24 23:43 157 1 gusting 4 20.0
2017-May-24 23:38 159 1 gusting 4 20.0
2017-May-24 23:33 157 0 gusting 4 20.0
2017-May-24 23:28 158 0 gusting 4 20.0
2017-May-24 23:23 158 1 gusting 4 20.0
2017-May-24 23:18 161 0 gusting 4 20.0
2017-May-24 23:13 174 0 gusting 4 20.0
2017-May-24 23:08 192 1 gusting 3 20.0
2017-May-24 23:03 197 1 gusting 3 20.0
2017-May-24 22:58 201 0 gusting 2 19.4
2017-May-24 22:53 201 0 gusting 3 19.4
2017-May-24 22:48 201 1 gusting 3 19.4
2017-May-24 22:43 201 1 gusting 3 19.4
2017-May-24 22:38 205 1 gusting 3 19.4
2017-May-24 22:33 200 0 gusting 3 19.4
2017-May-24 22:28 200 0 gusting 3 19.4
2017-May-24 22:23 201 1 gusting 2 19.4
2017-May-24 22:18 201 1 gusting 2 19.4
2017-May-24 22:13 201 0 gusting 3 19.4
2017-May-24 22:08 201 1 gusting 5 19.4
2017-May-24 22:03 201 2 gusting 5 19.4
2017-May-24 21:58 214 2 gusting 4 19.4
2017-May-24 21:53 222 2 gusting 6 20.0
2017-May-24 21:48 163 1 gusting 6 20.0
2017-May-24 21:43 157 1 gusting 6 20.0
2017-May-24 21:38 164 1 gusting 6 20.0
2017-May-24 21:33 128 1 gusting 6 20.0
2017-May-24 21:28 152 1 gusting 6 20.0
2017-May-24 21:23 123 1 gusting 7 20.0
2017-May-24 21:18 146 1 gusting 7 20.0
2017-May-24 21:13 085 0 gusting 4 19.4
2017-May-24 21:08 109 0 gusting 5 19.4
2017-May-24 21:03 138 0 gusting 5 20.0
2017-May-24 20:58 138 0 gusting 4 20.0
2017-May-24 20:53 138 1 gusting 4 20.0
2017-May-24 20:48 114 0 gusting 3 20.0
2017-May-24 20:43 097 0 gusting 3 19.4
2017-May-24 20:38 067 0 gusting 3 20.0
2017-May-24 20:33 087 1 gusting 6 20.0
2017-May-24 20:28 101 1 gusting 6 20.0
2017-May-24 20:23 078 1 gusting 5 20.0
2017-May-24 20:18 066 1 gusting 5 20.0
2017-May-24 20:13 100 0 gusting 5 20.0
2017-May-24 20:08 086 0 gusting 6 20.0
2017-May-24 20:03 085 1 gusting 6 20.0
2017-May-24 19:58 136 1 gusting 5 20.0
2017-May-24 19:53 136 1 gusting 5 20.0
2017-May-24 19:48 158 0 gusting 5 19.4
2017-May-24 19:43 100 0 gusting 6 19.4
2017-May-24 19:38 096 1 gusting 6 19.4
2017-May-24 19:32 105 1 gusting 6 19.4
2017-May-24 19:28 136 1 gusting 6 19.4
2017-May-24 19:23 123 0 gusting 5 19.4
2017-May-24 19:17 090 0 gusting 3 19.4
2017-May-24 19:12 086 0 gusting 3 19.4
2017-May-24 19:08 091 0 gusting 3 19.4
2017-May-24 19:02 116 0 gusting 2 19.4